DECAYED

STARLINK-1205, 45184 (Decayed)

Orbit data source: Space-Track

STARLINK-1205, 45184 was a payload satellite owned by SpaceX/Seattle (US) in LEO that was launched on Mon, 17 Feb 2020 UTC via an FALCON 9 launch vehicle from the Air Force Eastern Test Range (AFETR). Payload-class satellites include a variety of spacecraft equipped with specific instruments for various scientific and technological missions. These include communications satellites like Starlink; space stations such as the ISS; scientific satellites like the Hubble; Earth observation satellites from companies like Planet Labs, Umbra, and HawkEye 360; GPS; miniature CubeSats for education and research; and military/defense satellites.

Not visible in the next 10 days
Identifier
45184, 2020-012G
Orbit
Decayed
Country
Flag of USUS
Related business
Manufacturer
SpaceX/Seattle
Mission
Decayed Commercial Communications
Bus & Motor
STARLINK, Unknown motor
Mass
260 kg wet, ~248 kg dry
Launch date (UTC)
2020-02-17 (6 years ago)
Launch vehicle
FALCON 9
Launch site
Air Force Eastern Test Range (AFETR)
Object type
Payload
Rocket body
Debris
Shape & HBR
Box + 1 Pan, 10.1 m
Radar Cross Section
13.562 m², Large (>1 m²)

Expand to show TLE details & history
Last TLE update: 7 months ago

TLE from 7 months ago
0 STARLINK-1205
1 45184U 20012G   25084.18520723  .05031352  12027-4  12509-2 0  9998
2 45184  53.0185  89.4374 0003499 240.2389 203.4255 16.28370854282685
Epoch: 2025-03-25T04:26Z
TLE epoch observation values (Epoch: 2025-03-25T04:26:41.904Z)
Latitude
52.71161°
Longitude
-80.62359°
Altitude
205.407 km
Speed
7.788 km/s
True Right ascension
11h 15m 46s
True Declination
52° 31' 54"
Sunlit
Object was in full shadow at epoch
Visualization orbit readout
Latitude
Unknown
Longitude
Unknown
Altitude
Unknown
Speed
Unknown
Apparent Right ascension
Unknown
Apparent Declination
Unknown
Sunlit
N/A
Visualization observer readout
Local Sidereal Time
11:44:06
Azimuth
Unknown
Elevation
Unknown
Doppler factor
Unknown
Orbital elements
Apogee altitude
199.513 km
Perigee altitude
194.912 km
Semi-major axis
6,575.349 km
Eccentricity
0.00035
Inclination
53.0185°
RAAN
89.4374°
Arg. of periapsis
240.2389°
True anomaly
203.40957°
Mean anomaly
203.4255°
Eccentric anomaly
203.41753°
Mean motion
4.07066 °/min
Orbital period
88.44 mins
BSTAR
0.0012509
Loading maneuver chart data...
Computing Atmospheric mass density...

Documentation

Showing up to 5 results
|